www.pogodaiklimat.ru

Погода и климат >> Архив погоды >> Сенегал >> Колда


ПОГОДА в Колде

  • Прогноз погоды в Колде
  • Монитор погоды в Колде

АРХИВ ПОГОДЫ в Колде

Время (UTC), дата Ветер
(напр.,м/с)
 
Видим.   Явления Облачность Т
(С)
Тd
(С)
f
(%)
Тe
(С)
Тes
(С)
Комфортность P
(гПа)
Po
(гПа)
Тmin
(С)
Tmax
(С)
R
(мм)
R24
(мм)
S
(см)
12 14.04 ЮЗ 2 10 км ясно +36.0 +9.6 20 +35 +55 опасность
солнечного
удара
1010.5 1009.4
18 14.04 ЮВ 2 10 км 5/0
[Ci fib]
+41.0 +10.0 16 +40 +41 очень
жарко
1007.2 1006.1 +43.6
00 15.04 штиль 0 8000 м ясно +28.4 +12.2 37 +30 +30 жарко 1010.6 1009.5
06 15.04 штиль 0 8000 м ясно +21.5 +15.2 67 +25 +25 комфорт 1010.5 1009.4 +21.4
12 15.04 С 3 10 км ясно +37.2 +6.5 15 +35 +52 опасность
солнечного
удара
1011.0 1009.9
18 15.04 С 2 10 км ясно +41.5 +7.5 13 +39 +41 очень
жарко
1006.8 1005.7 +43.6
00 16.04 ЮЗ 2 8000 м ясно +28.5 +14.4 42 +31 +31 душно 1010.6 1009.5
06 16.04 ЮЗ 2 8000 м ясно +21.8 +16.9 74 +26 +26 душно 1010.0 1008.9 +21.5
12 16.04 СВ 2 10 км ясно +36.5 +12.9 24 +36 +57 опасность
солнечного
удара
1010.6 1009.5
18 16.04 штиль 0 10 км ясно +42.7 +9.2 14 +41 +44 опасность
перегрева
1006.2 1005.1 +44.4
00 17.04 ЮЗ 3 8000 м ясно +29.2 +20.5 59 +36 +36 очень
душно
1009.2 1008.1
06 17.04 ЮЗ 3 8000 м 6/0
[Ci sp]
+22.0 +19.4 85 +27 +27 душно 1009.9 1008.8 +21.6
12 17.04 СВ 2 10 км ясно +34.0 +11.7 26 +34 +54 опасность
солнечного
удара
1011.2 1010.1
18 17.04 СВ 1 10 км 8/0
[Ci fib]
+40.8 +11.9 18 +40 +42 очень
жарко
1006.8 1005.7 +41.9
00 18.04 СЗ 3 8000 м ясно +29.2 +19.7 57 +35 +35 очень
душно
1010.6 1009.5
06 18.04 штиль 0 8000 м ясно +24.0 +18.9 73 +29 +29 душно 1010.0 1008.9 +23.7
12 18.04 С 4 10 км 6/0
[Ci fib]
+37.3 +12.2 22 +37 +49 очень
жарко
1010.2 1009.1
18 18.04 С 3 10 км 6/0
[Ac trans]
+41.4 +6.6 12 +39 +40 очень
жарко
1005.8 1004.7 +43.0
00 19.04 С 2 8000 м 3/0
[Ci fib]
+30.3 +11.3 31 +31 +31 жарко 1008.8 1007.7
06 19.04 ЮЗ 3 8000 м 6/0
[Ac trans]
+25.0 +20.8 78 +31 +31 очень
душно
1009.4 1008.3 +24.6
12 19.04 В 3 10 км 6/0
[Ci fib]
+33.5 +19.8 45 +40 +55 опасность
солнечного
удара
1010.4 1009.3
18 19.04 СВ 3 10 км 6/0
[Ci fib]
+41.8 +10.1 15 +40 +42 очень
жарко
1006.5 1005.4 +43.1
00 20.04 ЮЗ 4 8000 м 4/0
[Ci fib]
+28.9 +21.7 65 +37 +37 очень
душно
1010.5 1009.4
06 20.04 ЮЗ 3 8000 м ясно +23.6 +20.4 82 +29 +29 душно 1009.8 1008.7 +23.4
12 20.04 З 2 10 км ясно +35.2 +19.2 39 +40 +61 опасность
солнечного
удара
1010.7 1009.6
18 20.04 С 1 10 км ясно +41.5 +15.1 21 +42 +45 опасность
перегрева
1006.6 1005.5 +42.5
00 21.04 ЮЗ 4 8000 м ясно +28.6 +21.0 63 +36 +36 очень
душно
1010.7 1009.6
06 21.04 ЮЗ 1 8000 м ясно +23.5 +20.5 83 +29 +29 душно 1010.3 1009.2 +23.1

 

Местоположение метеостанции Колда (Сенегал): широта 12.88 долгота -14.96 высота над уровнем моря 10 м.

В архиве по умолчанию представлена погода в Колде за последнюю неделю. Архивные данные за месяц целиком и за предыдущие месяцы, начиная с января 2011 года, Вы можете получить, выбрав интересующий диапазон дат из раскрывающегося списка и нажав кнопку "Ввод!".


*Определитесь, кто Вы:
робот инопланетянин человек

Внимание! Время в таблицах - всемирное. Для получения местного времени необходимо прибавить поправку, которая равна 0 ч.

Смотрите также архив погоды в соседних городах и на ближайших метеорологических станциях:

Погода в Джорджтауне (Гамбия) (75 км)
Погода в Бафате (Гвинея-Биссау) (85 км)
Погода в Бассе (Гамбия) (89 км)
Погода в Женое (Гамбия) (94 км)
Погода в Кауере (Гамбия) (100 км)
Погода в Сапу (Гамбия) (130 км)
Погода в Биссау (Гвинея-Биссау) (132 км)
Погода в Сибаноре (Гамбия) (140 км)
Погода в Кереване (Гамбия) (140 км)
Погода в Зигиншоре (Сенегал) (146 км)

Пояснения к столбцам:

Ветер - указаны скорость ветра в м/с - средняя за 10 мин, порывы в срок и между сроками (в фигурных скобках) и направление, откуда дует ветер: С - северный, СВ - северо-восточный, В - восточный, ЮВ - юго-восточный, Ю - южный, ЮЗ - юго-западный, З - западный, СЗ - северо-западный.
Видимость - горизонтальная дальность видимости в метрах или километрах. При видимости от 1 до 10 км при отсутствии осадков обычно наблюдается дымка, при ухудшении видимости до 1 км и менее - туман. В сухую погоду видимость может ухудшаться дымом, пылью или мглою.
Явления - указаны атмосферные явления, наблюдавшиеся в срок или в последний час перед сроком; фигурными скобками обозначены явления, наблюдавшиеся между сроками (за 1-3 часа до срока); квадратными скобками обозначены град или гололедные отложения с указанием их диаметра в мм.
Облачность - указаны через наклонную черту общая и нижняя облачность в баллах и высота нижней границы облаков в метрах; квадратными скобками обозначены формы облаков: Ci - перистые, Cs - перисто-слоистые, Cc - перисто-кучевые, Ac - высококучевые, As - высокослоистые, Sc - слоисто-кучевые, Ns - слоисто-дождевые, Cu - кучевые, Cb - кучево-дождевые. Подробнее классификацию облаков см. в Атласе облаков (PDF).
T - Температура воздуха - температура, измеренная на высоте 2 м над землей.
Td - Температура точки росы - температура, при понижении до которой содержащийся в воздухе водяной пар достигнет насыщения.
f - Относительная влажность воздуха - влажноcть воздуха, измеренная на высоте 2 м над землей.
Te - Эффективная температура - температура, которую ощущает одетый по сезону человек в тени. Характеристика душности погоды. При расчете учитывается влияние влажности воздуха и скорости ветра на теплоощущения человека.
Tes - Эффективная температура на солнце - температура, которую ощущает человек, с поправкой на солнечный нагрев. Характеристика знойности погоды. Зависит от высоты солнца над горизонтом, облачности и скорости ветра. Ночью, в пасмурную погоду, а также при ветре 12 м/с и более поправка равна нулю.
P - Атмосферное давление - приведенное к уровню моря атмосферное давление.
Po - Атмосферное давление - измеренное на уровне метеостанции атмосферное давление.
Tmin - Минимальная температура - минимум температуры воздуха на высоте 2 м над землей.
Tmax - Максимальная температура - максимум температуры воздуха на высоте 2 м над землей.
R - Количество осадков - Количество выпавших осадков за период времени, мм. При наведении курсора мыши на число - период времени, за который выпало указанное количество осадков.
R24 - Количество осадков - Количество выпавших осадков за 24 часа, мм.
S - Снежный покров - Высота снежного покрова, см. При наведении курсора мыши на число - состояние снежного покрова и степень покрытия местности в баллах.